Tracking 18980 objects as of 18-Feb-2018
HD Live streaming from Space Station
objects crossing your sky now

NOAA 16 DEB

Track NOAA 16 DEB now!
10-day predictions


NORAD ID: 42336
Int'l Code: 2000-055QC
Perigee: 835.5 km
Apogee: 863.3 km
Inclination: 99.0 °
Period: 101.8 minutes
Semi major axis: 7220 km
RCS: Unknown
Launch date: September 21, 2000
Source: United States (US)
Launch site: AIR FORCE WESTERN TEST RANGE (AFWTR)

Note: This is SATELLITE DEBRIS
aabbcc
Your satellite tracking list
Your tracking list is empty




NASA's NSSDC Master Catalog

Two Line Element Set (TLE):
1 42336U 00055QC  18048.16896507 +.00010937 +00000-0 +56547-2 0  9990
2 42336 098.9997 131.9971 0019301 202.5456 157.4870 14.15011258098603
Source of the keplerian elements: AFSPC